,,Stat6,,Stat2,,Stat8,,Stat9,,Stat10,,Wind1,,Wind1,
time,status,PA1M_AVG,status,PR1M_SUM,status,RH1M_AVG,status,SR1M_AVG,status,TA1M_AVG,status,W1dAve1m,status,W1sAve1m,
2008-05-02, 00:00:00,VALID,916.497,VALID,0,VALID,100,VALID,0,VALID,21.0996,VALID,41,VALID,0,
2008-05-02, 00:01:00,VALID,916.487,VALID,0,VALID,100,VALID,0,VALID,21.1093,VALID,48,VALID,0,
2008-05-02, 00:02:00,VALID,916.485,VALID,0,VALID,100,VALID,-0.0169808,VALID,21.1093,VALID,48,VALID,0,
2008-05-02, 00:03:00,VALID,916.477,VALID,0,VALID,100,VALID,0,VALID,21.0961,VALID,48,VALID,0,
2008-05-02, 00:04:00,VALID,916.48,VALID,0,VALID,100,VALID,0,VALID,21.0831,VALID,48,VALID,0,
2008-05-02, 00:05:00,VALID,916.473,VALID,0,VALID,100,VALID,0,VALID,21.0764,VALID,48,VALID,0,
2008-05-02, 00:06:00,VALID,916.483,VALID,0,VALID,100,VALID,-0.0169808,VALID,21.0801,VALID,48,VALID,0,
2008-05-02, 00:07:00,VALID,916.496,VALID,0,VALID,100,VALID,-0.0509425,VALID,21.0615,VALID,45,VALID,0,
2008-05-02, 00:08:00,VALID,916.475,VALID,0,VALID,100,VALID,-0.101885,VALID,21.0428,VALID,40,VALID,0,
2008-05-02, 00:09:00,VALID,916.468,VALID,0,VALID,100,VALID,-0.101885,VALID,21.0168,VALID,29,VALID,0,
2008-05-02, 00:10:00,VALID,916.46,VALID,0,VALID,100,VALID,-0.118866,VALID,21.023,VALID,14,VALID,0,
2008-05-02, 00:11:00,VALID,916.444,VALID,0,VALID,100,VALID,-0.101885,VALID,21.0328,VALID,7,VALID,0,
2008-05-02, 00:12:00,VALID,916.43,VALID,0,VALID,100,VALID,-0.0849042,VALID,21.0558,VALID,7,VALID,0,
2008-05-02, 00:13:00,VALID,916.422,VALID,0,VALID,100,VALID,-0.101885,VALID,21.0685,VALID,7,VALID,0,
2008-05-02, 00:14:00,VALID,916.405,VALID,0,VALID,100,VALID,-0.0849042,VALID,21.1074,VALID,7,VALID,0,
2008-05-02, 00:15:00,VALID,916.385,VALID,0,VALID,100,VALID,-0.0679233,VALID,21.1234,VALID,7,VALID,0,
2008-05-02, 00:16:00,VALID,916.353,VALID,0,VALID,100,VALID,-0.0849042,VALID,21.1304,VALID,7,VALID,0,
2008-05-02, 00:17:00,VALID,916.328,VALID,0,VALID,100,VALID,-0.101885,VALID,21.1367,VALID,7,VALID,0,
2008-05-02, 00:18:00,VALID,916.317,VALID,0,VALID,100,VALID,-0.118866,VALID,21.1172,VALID,7,VALID,0,
2008-05-02, 00:19:00,VALID,916.315,VALID,0,VALID,100,VALID,-0.118866,VALID,21.1174,VALID,8,VALID,0,
2008-05-02, 00:20:00,VALID,916.297,VALID,0,VALID,100,VALID,-0.101885,VALID,21.1237,VALID,9,VALID,0,
2008-05-02, 00:21:00,VALID,916.297,VALID,0,VALID,100,VALID,-0.101885,VALID,21.1431,VALID,10,VALID,0,
2008-05-02, 00:22:00,VALID,916.299,VALID,0,VALID,100,VALID,-0.0509425,VALID,21.1618,VALID,10,VALID,0,
2008-05-02, 00:23:00,VALID,916.291,VALID,0,VALID,100,VALID,0.0169808,VALID,21.184,VALID,10,VALID,0,
2008-05-02, 00:24:00,VALID,916.272,VALID,0,VALID,100,VALID,0,VALID,21.1808,VALID,10,VALID,0,
2008-05-02, 00:25:00,VALID,916.249,VALID,0,VALID,100,VALID,0,VALID,21.1678,VALID,10,VALID,0,
2008-05-02, 00:26:00,VALID,916.234,VALID,0,VALID,100,VALID,0.0169808,VALID,21.1613,VALID,10,VALID,0,
2008-05-02, 00:27:00,VALID,916.229,VALID,0,VALID,100,VALID,0,VALID,21.1645,VALID,10,VALID,0,
2008-05-02, 00:28:00,VALID,916.219,VALID,0,VALID,100,VALID,0,VALID,21.1345,VALID,11,VALID,0,
2008-05-02, 00:29:00,VALID,916.208,VALID,0,VALID,100,VALID,-0.0169808,VALID,21.1223,VALID,22,VALID,0,
2008-05-02, 00:30:00,VALID,916.211,VALID,0,VALID,100,VALID,0.0339617,VALID,21.0985,VALID,20,VALID,0.593378,
2008-05-02, 00:31:00,VALID,916.223,VALID,0,VALID,100,VALID,0.0169808,VALID,21.0896,VALID,20,VALID,0.794457,
2008-05-02, 00:32:00,VALID,916.195,VALID,0,VALID,100,VALID,0,VALID,21.0766,VALID,22,VALID,0.368037,
2008-05-02, 00:33:00,VALID,916.171,VALID,0,VALID,100,VALID,0,VALID,21.0639,VALID,22,VALID,0,
2008-05-02, 00:34:00,VALID,916.132,VALID,0,VALID,100,VALID,0.0169808,VALID,21.0636,VALID,22,VALID,0,
2008-05-02, 00:35:00,VALID,916.097,VALID,0,VALID,100,VALID,-0.0339617,VALID,21.0636,VALID,22,VALID,0,
2008-05-02, 00:36:00,VALID,916.04,VALID,0,VALID,100,VALID,0,VALID,21.0479,VALID,22,VALID,0,
2008-05-02, 00:37:00,VALID,916.013,VALID,0,VALID,100,VALID,-0.0339617,VALID,21.0314,VALID,3,VALID,0.0578125,
2008-05-02, 00:38:00,VALID,915.99,VALID,0,VALID,100,VALID,-0.0169808,VALID,21.0122,VALID,360,VALID,0,
2008-05-02, 00:39:00,VALID,915.956,VALID,0,VALID,100,VALID,0,VALID,20.9825,VALID,360,VALID,0,
2008-05-02, 00:40:00,VALID,915.935,VALID,0,VALID,100,VALID,0,VALID,20.9725,VALID,360,VALID,0,
2008-05-02, 00:41:00,VALID,915.902,VALID,0,VALID,100,VALID,0.0679233,VALID,20.9663,VALID,360,VALID,0,
2008-05-02, 00:42:00,VALID,915.876,VALID,0,VALID,100,VALID,0,VALID,20.963,VALID,360,VALID,0,
2008-05-02, 00:43:00,VALID,915.845,VALID,0,VALID,100,VALID,0.0169808,VALID,20.97,VALID,360,VALID,0,
2008-05-02, 00:44:00,VALID,915.819,VALID,0,VALID,100,VALID,-0.0169808,VALID,20.9598,VALID,360,VALID,0,
2008-05-02, 00:45:00,VALID,915.797,VALID,0,VALID,100,VALID,0,VALID,20.9241,VALID,360,VALID,0,
2008-05-02, 00:46:00,VALID,915.777,VALID,0,VALID,100,VALID,0,VALID,20.9011,VALID,360,VALID,0,
2008-05-02, 00:47:00,VALID,915.769,VALID,0,VALID,100,VALID,0.0679233,VALID,20.8648,VALID,360,VALID,0,
2008-05-02, 00:48:00,VALID,915.766,VALID,0,VALID,100,VALID,0.0169808,VALID,20.8234,VALID,5,VALID,0.304497,
2008-05-02, 00:49:00,VALID,915.776,VALID,0,VALID,100,VALID,0.0339617,VALID,20.7747,VALID,9,VALID,0,
2008-05-02, 00:50:00,VALID,915.801,VALID,0,VALID,100,VALID,0.0169808,VALID,20.7458,VALID,10,VALID,0.00130208,
2008-05-02, 00:51:00,VALID,915.817,VALID,0,VALID,100,VALID,0,VALID,20.729,VALID,11,VALID,0,
2008-05-02, 00:52:00,VALID,915.833,VALID,0,VALID,100,VALID,0,VALID,20.7096,VALID,13,VALID,0,
2008-05-02, 00:53:00,VALID,915.823,VALID,0,VALID,100,VALID,0.0169808,VALID,20.6771,VALID,13,VALID,0,
2008-05-02, 00:54:00,VALID,915.812,VALID,0,VALID,100,VALID,0,VALID,20.6676,VALID,13,VALID,0,
2008-05-02, 00:55:00,VALID,915.805,VALID,0,VALID,100,VALID,0,VALID,20.6709,VALID,21,VALID,0,
2008-05-02, 00:56:00,VALID,915.794,VALID,0,VALID,100,VALID,0.0339617,VALID,20.6541,VALID,25,VALID,0,
2008-05-02, 00:57:00,VALID,915.795,VALID,0,VALID,100,VALID,0.0169808,VALID,20.6709,VALID,22,VALID,0,
2008-05-02, 00:58:00,VALID,915.801,VALID,0,VALID,100,VALID,-0.0169808,VALID,20.6744,VALID,20,VALID,0,
2008-05-02, 00:59:00,VALID,915.796,VALID,0,VALID,100,VALID,-0.0339617,VALID,20.6709,VALID,19,VALID,0,
2008-05-02, 01:00:00,VALID,915.79,VALID,0,VALID,100,VALID,0.0169808,VALID,20.6644,VALID,15,VALID,0,
2008-05-02, 01:01:00,VALID,915.753,VALID,0,VALID,100,VALID,0.0169808,VALID,20.6609,VALID,32,VALID,0,
2008-05-02, 01:02:00,VALID,915.711,VALID,0,VALID,100,VALID,-0.0169808,VALID,20.6679,VALID,25,VALID,0,
2008-05-02, 01:03:00,VALID,915.678,VALID,0,VALID,100,VALID,-0.0169808,VALID,20.6676,VALID,25,VALID,0,
2008-05-02, 01:04:00,VALID,915.67,VALID,0,VALID,100,VALID,0.0339617,VALID,20.6566,VALID,24,VALID,0,
2008-05-02, 01:05:00,VALID,915.661,VALID,0,VALID,100,VALID,0,VALID,20.6414,VALID,24,VALID,0,
2008-05-02, 01:06:00,VALID,915.664,VALID,0,VALID,100,VALID,0.0169808,VALID,20.6284,VALID,18,VALID,0,
2008-05-02, 01:07:00,VALID,915.66,VALID,0,VALID,100,VALID,-0.0169808,VALID,20.6517,VALID,11,VALID,0,
2008-05-02, 01:08:00,VALID,915.658,VALID,0,VALID,100,VALID,-0.0509425,VALID,20.6614,VALID,11,VALID,0,
2008-05-02, 01:09:00,VALID,915.658,VALID,0,VALID,100,VALID,0,VALID,20.6641,VALID,11,VALID,0,
2008-05-02, 01:10:00,VALID,915.656,VALID,0,VALID,100,VALID,0,VALID,20.6871,VALID,11,VALID,0,
2008-05-02, 01:11:00,VALID,915.656,VALID,0,VALID,100,VALID,0,VALID,20.6974,VALID,11,VALID,0,
2008-05-02, 01:12:00,VALID,915.665,VALID,0,VALID,100,VALID,0,VALID,20.6868,VALID,11,VALID,0,
2008-05-02, 01:13:00,VALID,915.668,VALID,0,VALID,100,VALID,0,VALID,20.6701,VALID,11,VALID,0,
2008-05-02, 01:14:00,VALID,915.665,VALID,0,VALID,100,VALID,0,VALID,20.6674,VALID,11,VALID,0,
2008-05-02, 01:15:00,VALID,915.646,VALID,0,VALID,100,VALID,0.0339617,VALID,20.6574,VALID,15,VALID,0,
2008-05-02, 01:16:00,VALID,915.641,VALID,0,VALID,100,VALID,0,VALID,20.6579,VALID,22,VALID,0,
2008-05-02, 01:17:00,VALID,915.655,VALID,0,VALID,100,VALID,0.0169808,VALID,20.6482,VALID,27,VALID,0,
2008-05-02, 01:18:00,VALID,915.687,VALID,0,VALID,100,VALID,0.0169808,VALID,20.6379,VALID,27,VALID,0,
2008-05-02, 01:19:00,VALID,915.708,VALID,0,VALID,100,VALID,0,VALID,20.6217,VALID,29,VALID,0,
2008-05-02, 01:20:00,VALID,915.693,VALID,0,VALID,100,VALID,0.0339617,VALID,20.6417,VALID,24,VALID,0.32049,
2008-05-02, 01:21:00,VALID,915.682,VALID,0,VALID,100,VALID,0,VALID,20.6609,VALID,24,VALID,0.00613839,
2008-05-02, 01:22:00,VALID,915.674,VALID,0,VALID,100,VALID,-0.0339617,VALID,20.6671,VALID,23,VALID,0.122159,
2008-05-02, 01:23:00,VALID,915.654,VALID,0,VALID,100,VALID,-0.0849042,VALID,20.6752,VALID,32,VALID,1.43169,
2008-05-02, 01:24:00,VALID,915.649,VALID,0,VALID,100,VALID,-0.0509425,VALID,20.6554,VALID,27,VALID,1.23933,
2008-05-02, 01:25:00,VALID,915.658,VALID,0,VALID,100,VALID,-0.118866,VALID,20.6492,VALID,26,VALID,0.785633,
2008-05-02, 01:26:00,VALID,915.675,VALID,0,VALID,100,VALID,-0.0849042,VALID,20.626,VALID,23,VALID,0.241832,
2008-05-02, 01:27:00,VALID,915.703,VALID,0,VALID,100,VALID,-0.0679233,VALID,20.633,VALID,27,VALID,0.546303,
2008-05-02, 01:28:00,VALID,915.695,VALID,0,VALID,100,VALID,-0.0849042,VALID,20.6495,VALID,32,VALID,0,
2008-05-02, 01:29:00,VALID,915.679,VALID,0,VALID,100,VALID,-0.0509425,VALID,20.6557,VALID,32,VALID,0,
2008-05-02, 01:30:00,VALID,915.619,VALID,0,VALID,100,VALID,-0.101885,VALID,20.6687,VALID,56,VALID,0,
2008-05-02, 01:31:00,VALID,915.588,VALID,0,VALID,100,VALID,-0.0849042,VALID,20.6654,VALID,63,VALID,0,
2008-05-02, 01:32:00,VALID,915.584,VALID,0,VALID,100,VALID,-0.0679233,VALID,20.6854,VALID,63,VALID,0,
2008-05-02, 01:33:00,VALID,915.601,VALID,0,VALID,100,VALID,-0.101885,VALID,20.6976,VALID,63,VALID,0,
2008-05-02, 01:34:00,VALID,915.6,VALID,0,VALID,100,VALID,-0.0509425,VALID,20.7104,VALID,63,VALID,0,
2008-05-02, 01:35:00,VALID,915.591,VALID,0,VALID,100,VALID,-0.101885,VALID,20.7368,VALID,63,VALID,0,
2008-05-02, 01:36:00,VALID,915.592,VALID,0,VALID,100,VALID,-0.0849042,VALID,20.7139,VALID,41,VALID,0,
2008-05-02, 01:37:00,VALID,915.597,VALID,0,VALID,100,VALID,-0.0679233,VALID,20.7233,VALID,36,VALID,0,
2008-05-02, 01:38:00,VALID,915.594,VALID,0,VALID,100,VALID,-0.0169808,VALID,20.7296,VALID,37,VALID,0,
2008-05-02, 01:39:00,VALID,915.585,VALID,0,VALID,100,VALID,-0.0339617,VALID,20.7328,VALID,38,VALID,0.183494,
2008-05-02, 01:40:00,VALID,915.571,VALID,0,VALID,100,VALID,0.0169808,VALID,20.7323,VALID,32,VALID,0.255944,
2008-05-02, 01:41:00,VALID,915.567,VALID,0,VALID,100,VALID,0,VALID,20.7458,VALID,42,VALID,0.689198,
2008-05-02, 01:42:00,VALID,915.551,VALID,0,VALID,100,VALID,0,VALID,20.7485,VALID,26,VALID,0.465701,
2008-05-02, 01:43:00,VALID,915.558,VALID,0,VALID,100,VALID,-0.0169808,VALID,20.7358,VALID,34,VALID,1.0367,
2008-05-02, 01:44:00,VALID,915.559,VALID,0,VALID,100,VALID,-0.0169808,VALID,20.719,VALID,34,VALID,0.325581,
2008-05-02, 01:45:00,VALID,915.593,VALID,0,VALID,100,VALID,0,VALID,20.6958,VALID,360,VALID,0.146802,
2008-05-02, 01:46:00,VALID,915.608,VALID,0,VALID,100,VALID,-0.0509425,VALID,20.7126,VALID,6,VALID,0,
2008-05-02, 01:47:00,VALID,915.629,VALID,0,VALID,100,VALID,0,VALID,20.722,VALID,21,VALID,0,
2008-05-02, 01:48:00,VALID,915.656,VALID,0,VALID,100,VALID,0,VALID,20.7253,VALID,21,VALID,0,
2008-05-02, 01:49:00,VALID,915.683,VALID,0,VALID,100,VALID,-0.0169808,VALID,20.729,VALID,21,VALID,0,
2008-05-02, 01:50:00,VALID,915.689,VALID,0,VALID,100,VALID,0,VALID,20.7358,VALID,21,VALID,0,
2008-05-02, 01:51:00,VALID,915.663,VALID,0,VALID,100,VALID,0,VALID,20.742,VALID,36,VALID,0,
2008-05-02, 01:52:00,VALID,915.655,VALID,0,VALID,100,VALID,0,VALID,20.7453,VALID,27,VALID,0,
2008-05-02, 01:53:00,VALID,915.647,VALID,0,VALID,100,VALID,-0.0169808,VALID,20.7185,VALID,37,VALID,0,
2008-05-02, 01:54:00,VALID,915.627,VALID,0,VALID,100,VALID,0,VALID,20.7325,VALID,8,VALID,0,
2008-05-02, 01:55:00,VALID,915.621,VALID,0,VALID,100,VALID,0,VALID,20.7066,VALID,31,VALID,1.1907,
2008-05-02, 01:56:00,VALID,915.598,VALID,0,VALID,100,VALID,-0.0339617,VALID,20.6939,VALID,28,VALID,1.15588,
2008-05-02, 01:57:00,VALID,915.571,VALID,0,VALID,100,VALID,-0.0169808,VALID,20.6611,VALID,19,VALID,0.0792411,
2008-05-02, 01:58:00,VALID,915.56,VALID,0,VALID,100,VALID,-0.0169808,VALID,20.6514,VALID,31,VALID,0.093192,
2008-05-02, 01:59:00,VALID,915.544,VALID,0,VALID,100,VALID,-0.0169808,VALID,20.6284,VALID,28,VALID,0.115327,
2008-05-02, 02:00:00,VALID,915.563,VALID,0,VALID,100,VALID,-0.0339617,VALID,20.6189,VALID,33,VALID,0,
2008-05-02, 02:01:00,VALID,915.592,VALID,0,VALID,100,VALID,0,VALID,20.6122,VALID,13,VALID,0,
2008-05-02, 02:02:00,VALID,915.595,VALID,0,VALID,100,VALID,-0.0679233,VALID,20.6157,VALID,13,VALID,0,
2008-05-02, 02:03:00,VALID,915.578,VALID,0,VALID,100,VALID,-0.0509425,VALID,20.6192,VALID,23,VALID,0,
2008-05-02, 02:04:00,VALID,915.552,VALID,0,VALID,100,VALID,0,VALID,20.6057,VALID,55,VALID,0,
2008-05-02, 02:05:00,VALID,915.515,VALID,0,VALID,100,VALID,0,VALID,20.5865,VALID,55,VALID,0,
2008-05-02, 02:06:00,VALID,915.498,VALID,0,VALID,100,VALID,-0.0169808,VALID,20.5865,VALID,55,VALID,0,
2008-05-02, 02:07:00,VALID,915.467,VALID,0,VALID,100,VALID,-0.0169808,VALID,20.5868,VALID,55,VALID,0,
2008-05-02, 02:08:00,VALID,915.42,VALID,0,VALID,100,VALID,-0.0339617,VALID,20.5673,VALID,56,VALID,0,
2008-05-02, 02:09:00,VALID,915.39,VALID,0,VALID,100,VALID,-0.0339617,VALID,20.554,VALID,55,VALID,0,
2008-05-02, 02:10:00,VALID,915.342,VALID,0,VALID,100,VALID,-0.0339617,VALID,20.5348,VALID,55,VALID,0,
2008-05-02, 02:11:00,VALID,915.331,VALID,0,VALID,100,VALID,-0.0339617,VALID,20.5151,VALID,55,VALID,0,
2008-05-02, 02:12:00,VALID,915.335,VALID,0,VALID,100,VALID,0,VALID,20.5048,VALID,55,VALID,0,
2008-05-02, 02:13:00,VALID,915.329,VALID,0,VALID,100,VALID,-0.0339617,VALID,20.4989,VALID,55,VALID,0,
2008-05-02, 02:14:00,VALID,915.291,VALID,0,VALID,100,VALID,-0.0679233,VALID,20.4961,VALID,55,VALID,0,
2008-05-02, 02:15:00,VALID,915.255,VALID,0,VALID,100,VALID,-0.0849042,VALID,20.4796,VALID,264,VALID,0,
2008-05-02, 02:16:00,VALID,915.235,VALID,0,VALID,100,VALID,-0.0849042,VALID,20.4764,VALID,251,VALID,0,
2008-05-02, 02:17:00,VALID,915.223,VALID,0,VALID,100,VALID,-0.0339617,VALID,20.4567,VALID,253,VALID,0,
2008-05-02, 02:18:00,VALID,915.242,VALID,0,VALID,100,VALID,-0.0679233,VALID,20.4212,VALID,253,VALID,0,
2008-05-02, 02:19:00,VALID,915.268,VALID,0,VALID,100,VALID,-0.0509425,VALID,20.3953,VALID,251,VALID,0,
2008-05-02, 02:20:00,VALID,915.299,VALID,0,VALID,100,VALID,-0.0169808,VALID,20.3693,VALID,336,VALID,0,
2008-05-02, 02:21:00,VALID,915.31,VALID,0,VALID,100,VALID,-0.0679233,VALID,20.3528,VALID,37,VALID,0,
2008-05-02, 02:22:00,VALID,915.296,VALID,0,VALID,100,VALID,-0.0169808,VALID,20.3498,VALID,44,VALID,0,
2008-05-02, 02:23:00,VALID,915.296,VALID,0,VALID,100,VALID,-0.0509425,VALID,20.3458,VALID,49,VALID,0,
2008-05-02, 02:24:00,VALID,915.282,VALID,0,VALID,100,VALID,-0.0339617,VALID,20.3593,VALID,38,VALID,0,
2008-05-02, 02:25:00,VALID,915.277,VALID,0,VALID,100,VALID,-0.0169808,VALID,20.3366,VALID,35,VALID,0,
2008-05-02, 02:26:00,VALID,915.27,VALID,0,VALID,100,VALID,-0.0339617,VALID,20.3301,VALID,31,VALID,0.0606399,
2008-05-02, 02:27:00,VALID,915.272,VALID,0,VALID,100,VALID,-0.0679233,VALID,20.3271,VALID,25,VALID,0.584449,
2008-05-02, 02:28:00,VALID,915.269,VALID,0,VALID,100,VALID,-0.0339617,VALID,20.3239,VALID,26,VALID,0,
2008-05-02, 02:29:00,VALID,915.263,VALID,0,VALID,100,VALID,-0.0339617,VALID,20.3331,VALID,26,VALID,0,
2008-05-02, 02:30:00,VALID,915.227,VALID,0,VALID,100,VALID,-0.0169808,VALID,20.3628,VALID,26,VALID,0,
2008-05-02, 02:31:00,VALID,915.222,VALID,0,VALID,100,VALID,-0.0339617,VALID,20.3723,VALID,26,VALID,0.0518003,
2008-05-02, 02:32:00,VALID,915.244,VALID,0,VALID,100,VALID,-0.0339617,VALID,20.375,VALID,6,VALID,0.655556,
2008-05-02, 02:33:00,VALID,915.262,VALID,0,VALID,100,VALID,-0.0169808,VALID,20.3918,VALID,27,VALID,1.02035,
2008-05-02, 02:34:00,VALID,915.277,VALID,0,VALID,100,VALID,-0.0169808,VALID,20.3918,VALID,30,VALID,1.21391,
2008-05-02, 02:35:00,VALID,915.285,VALID,0,VALID,100,VALID,-0.0169808,VALID,20.4112,VALID,27,VALID,0.0607851,
2008-05-02, 02:36:00,VALID,915.292,VALID,0,VALID,100,VALID,-0.0339617,VALID,20.4277,VALID,24,VALID,0,
2008-05-02, 02:37:00,VALID,915.306,VALID,0,VALID,100,VALID,-0.0169808,VALID,20.4369,VALID,22,VALID,0.408594,
2008-05-02, 02:38:00,VALID,915.269,VALID,0,VALID,100,VALID,0,VALID,20.4307,VALID,17,VALID,0.00260417,
2008-05-02, 02:39:00,VALID,915.218,VALID,0,VALID,100,VALID,0,VALID,20.4142,VALID,11,VALID,0.169398,
2008-05-02, 02:40:00,VALID,915.149,VALID,0,VALID,100,VALID,0.0169808,VALID,20.3783,VALID,26,VALID,1.21218,
2008-05-02, 02:41:00,VALID,915.119,VALID,0,VALID,100,VALID,0.0169808,VALID,20.352,VALID,30,VALID,1.29142,
2008-05-02, 02:42:00,VALID,915.118,VALID,0,VALID,100,VALID,0.0169808,VALID,20.3428,VALID,27,VALID,0.860283,
2008-05-02, 02:43:00,VALID,915.137,VALID,0,VALID,100,VALID,0,VALID,20.3396,VALID,32,VALID,0.750521,
2008-05-02, 02:44:00,VALID,915.141,VALID,0,VALID,100,VALID,0,VALID,20.3326,VALID,25,VALID,0.309696,
2008-05-02, 02:45:00,VALID,915.16,VALID,0,VALID,100,VALID,-0.0169808,VALID,20.3006,VALID,18,VALID,0.157203,
2008-05-02, 02:46:00,VALID,915.169,VALID,0,VALID,100,VALID,0.0169808,VALID,20.2874,VALID,7,VALID,0,
2008-05-02, 02:47:00,VALID,915.162,VALID,0,VALID,100,VALID,0,VALID,20.2777,VALID,7,VALID,0,
2008-05-02, 02:48:00,VALID,915.174,VALID,0,VALID,100,VALID,0,VALID,20.2749,VALID,7,VALID,0,
2008-05-02, 02:49:00,VALID,915.151,VALID,0,VALID,100,VALID,-0.0169808,VALID,20.2619,VALID,7,VALID,0,
2008-05-02, 02:50:00,VALID,915.145,VALID,0,VALID,100,VALID,0,VALID,20.2587,VALID,17,VALID,0,
2008-05-02, 02:51:00,VALID,915.156,VALID,0,VALID,100,VALID,0,VALID,20.2682,VALID,27,VALID,0,
2008-05-02, 02:52:00,VALID,915.157,VALID,0,VALID,100,VALID,-0.0169808,VALID,20.2879,VALID,37,VALID,0,
2008-05-02, 02:53:00,VALID,915.196,VALID,0,VALID,100,VALID,-0.0169808,VALID,20.3106,VALID,38,VALID,0,
2008-05-02, 02:54:00,VALID,915.222,VALID,0,VALID,100,VALID,0,VALID,20.3134,VALID,37,VALID,0,
2008-05-02, 02:55:00,VALID,915.239,VALID,0,VALID,100,VALID,0,VALID,20.3333,VALID,34,VALID,0,
2008-05-02, 02:56:00,VALID,915.222,VALID,0,VALID,100,VALID,0.0169808,VALID,20.3393,VALID,26,VALID,0,
2008-05-02, 02:57:00,VALID,915.228,VALID,0,VALID,100,VALID,0.0169808,VALID,20.3166,VALID,27,VALID,0,
2008-05-02, 02:58:00,VALID,915.232,VALID,0,VALID,100,VALID,0.0339617,VALID,20.3166,VALID,27,VALID,0,
2008-05-02, 02:59:00,VALID,915.235,VALID,0,VALID,100,VALID,0.0169808,VALID,20.2904,VALID,24,VALID,0,
2008-05-02, 03:00:00,VALID,915.249,VALID,0,VALID,100,VALID,0.0169808,VALID,20.2906,VALID,23,VALID,0,
2008-05-02, 03:01:00,VALID,915.274,VALID,0,VALID,100,VALID,0,VALID,20.2812,VALID,18,VALID,0,
2008-05-02, 03:02:00,VALID,915.304,VALID,0,VALID,100,VALID,0,VALID,20.2849,VALID,13,VALID,0,
2008-05-02, 03:03:00,VALID,915.286,VALID,0,VALID,100,VALID,0,VALID,20.2712,VALID,13,VALID,0,
2008-05-02, 03:04:00,VALID,915.293,VALID,0,VALID,100,VALID,0,VALID,20.2779,VALID,13,VALID,0,
2008-05-02, 03:05:00,VALID,915.281,VALID,0,VALID,100,VALID,0,VALID,20.2782,VALID,13,VALID,0,
2008-05-02, 03:06:00,VALID,915.301,VALID,0,VALID,100,VALID,0.0169808,VALID,20.2684,VALID,13,VALID,0,
2008-05-02, 03:07:00,VALID,915.308,VALID,0,VALID,100,VALID,-0.0169808,VALID,20.2552,VALID,358,VALID,0,
2008-05-02, 03:08:00,VALID,915.296,VALID,0,VALID,100,VALID,0.0169808,VALID,20.2427,VALID,343,VALID,0,
2008-05-02, 03:09:00,VALID,915.292,VALID,0,VALID,100,VALID,-0.0169808,VALID,20.2357,VALID,11,VALID,0,
2008-05-02, 03:10:00,VALID,915.282,VALID,0,VALID,100,VALID,-0.118866,VALID,20.2438,VALID,11,VALID,0,
2008-05-02, 03:11:00,VALID,915.282,VALID,0,VALID,100,VALID,-0.118866,VALID,20.2502,VALID,11,VALID,0,
2008-05-02, 03:12:00,VALID,915.296,VALID,0,VALID,100,VALID,-0.101885,VALID,20.2605,VALID,11,VALID,0,
2008-05-02, 03:13:00,VALID,915.303,VALID,0,VALID,100,VALID,-0.101885,VALID,20.2605,VALID,11,VALID,0,
2008-05-02, 03:14:00,VALID,915.306,VALID,0,VALID,100,VALID,-0.101885,VALID,20.2438,VALID,11,VALID,0,
2008-05-02, 03:15:00,VALID,915.319,VALID,0,VALID,100,VALID,-0.101885,VALID,20.2567,VALID,11,VALID,0,
2008-05-02, 03:16:00,VALID,915.324,VALID,0,VALID,100,VALID,-0.101885,VALID,20.2532,VALID,11,VALID,0,
2008-05-02, 03:17:00,VALID,915.332,VALID,0,VALID,100,VALID,-0.118866,VALID,20.2338,VALID,11,VALID,0,
2008-05-02, 03:18:00,VALID,915.346,VALID,0,VALID,100,VALID,-0.101885,VALID,20.2405,VALID,11,VALID,0,
2008-05-02, 03:19:00,VALID,915.357,VALID,0,VALID,100,VALID,-0.101885,VALID,20.224,VALID,11,VALID,0,
2008-05-02, 03:20:00,VALID,915.372,VALID,0,VALID,100,VALID,-0.101885,VALID,20.2178,VALID,11,VALID,0,
2008-05-02, 03:21:00,VALID,915.368,VALID,0,VALID,100,VALID,-0.101885,VALID,20.2275,VALID,11,VALID,0,
2008-05-02, 03:22:00,VALID,915.365,VALID,0,VALID,100,VALID,-0.0339617,VALID,20.223,VALID,11,VALID,0,
2008-05-02, 03:23:00,VALID,915.352,VALID,0,VALID,100,VALID,-0.0169808,VALID,20.2252,VALID,11,VALID,0,
2008-05-02, 03:24:00,VALID,915.329,VALID,0,VALID,100,VALID,0,VALID,20.229,VALID,11,VALID,0,
2008-05-02, 03:25:00,VALID,915.344,VALID,0,VALID,100,VALID,0,VALID,20.2252,VALID,11,VALID,0,
2008-05-02, 03:26:00,VALID,915.331,VALID,0,VALID,100,VALID,0.0339617,VALID,20.2382,VALID,11,VALID,0,
2008-05-02, 03:27:00,VALID,915.319,VALID,0,VALID,100,VALID,0,VALID,20.2482,VALID,13,VALID,0,
2008-05-02, 03:28:00,VALID,915.309,VALID,0,VALID,100,VALID,0,VALID,20.2379,VALID,32,VALID,0,
2008-05-02, 03:29:00,VALID,915.311,VALID,0,VALID,100,VALID,0,VALID,20.225,VALID,32,VALID,0,
2008-05-02, 03:30:00,VALID,915.349,VALID,0,VALID,100,VALID,0.0509425,VALID,20.2217,VALID,18,VALID,0,
2008-05-02, 03:31:00,VALID,915.35,VALID,0,VALID,100,VALID,0,VALID,20.222,VALID,2,VALID,0,
2008-05-02, 03:32:00,VALID,915.358,VALID,0,VALID,100,VALID,0.0169808,VALID,20.1925,VALID,359,VALID,0,
2008-05-02, 03:33:00,VALID,915.32,VALID,0,VALID,100,VALID,0.0339617,VALID,20.1763,VALID,359,VALID,0,
2008-05-02, 03:34:00,VALID,915.283,VALID,0,VALID,100,VALID,0.0169808,VALID,20.1668,VALID,359,VALID,0,
2008-05-02, 03:35:00,VALID,915.275,VALID,0,VALID,100,VALID,0.0169808,VALID,20.1701,VALID,359,VALID,0,
2008-05-02, 03:36:00,VALID,915.283,VALID,0,VALID,100,VALID,0.0339617,VALID,20.1733,VALID,359,VALID,0,
2008-05-02, 03:37:00,VALID,915.291,VALID,0,VALID,100,VALID,-0.0509425,VALID,20.1771,VALID,359,VALID,0,
2008-05-02, 03:38:00,VALID,915.295,VALID,0,VALID,100,VALID,-0.0849042,VALID,20.1913,VALID,359,VALID,0,
2008-05-02, 03:39:00,VALID,915.284,VALID,0,VALID,100,VALID,-0.0849042,VALID,20.1876,VALID,359,VALID,0,
2008-05-02, 03:40:00,VALID,915.269,VALID,0,VALID,100,VALID,-0.101885,VALID,20.1878,VALID,22,VALID,0,
2008-05-02, 03:41:00,VALID,915.251,VALID,0,VALID,100,VALID,-0.101885,VALID,20.1651,VALID,27,VALID,0,
2008-05-02, 03:42:00,VALID,915.235,VALID,0,VALID,100,VALID,-0.101885,VALID,20.1324,VALID,27,VALID,0,
2008-05-02, 03:43:00,VALID,915.202,VALID,0,VALID,100,VALID,-0.0679233,VALID,20.1194,VALID,25,VALID,0,
2008-05-02, 03:44:00,VALID,915.22,VALID,0,VALID,100,VALID,-0.101885,VALID,20.0969,VALID,24,VALID,0,
2008-05-02, 03:45:00,VALID,915.212,VALID,0,VALID,100,VALID,-0.118866,VALID,20.094,VALID,20,VALID,0,
2008-05-02, 03:46:00,VALID,915.219,VALID,0,VALID,100,VALID,-0.101885,VALID,20.084,VALID,356,VALID,0,
2008-05-02, 03:47:00,VALID,915.224,VALID,0,VALID,100,VALID,-0.118866,VALID,20.0677,VALID,354,VALID,0,
2008-05-02, 03:48:00,VALID,915.199,VALID,0,VALID,100,VALID,-0.0509425,VALID,20.0612,VALID,354,VALID,0,
2008-05-02, 03:49:00,VALID,915.191,VALID,0,VALID,100,VALID,-0.0849042,VALID,20.0612,VALID,354,VALID,0,
2008-05-02, 03:50:00,VALID,915.172,VALID,0,VALID,100,VALID,-0.101885,VALID,20.0712,VALID,354,VALID,0,
2008-05-02, 03:51:00,VALID,915.138,VALID,0,VALID,100,VALID,-0.101885,VALID,20.084,VALID,354,VALID,0,
2008-05-02, 03:52:00,VALID,915.111,VALID,0,VALID,100,VALID,-0.0509425,VALID,20.0894,VALID,354,VALID,0,
2008-05-02, 03:53:00,VALID,915.074,VALID,0,VALID,100,VALID,0.0169808,VALID,20.0922,VALID,354,VALID,0,
2008-05-02, 03:54:00,VALID,915.059,VALID,0,VALID,100,VALID,0,VALID,20.0987,VALID,354,VALID,0,